RYR94VW EIDW-LGKR

Flight info

Callsign RYR94VW
Flight time N/A
Altitude 37000
Route ENDEQ1E ENDEQ Q36 ALAVA Z195 MALUD UL975 WAL M16 DOLAS DCT NAVPI DCT DODEN DCT NEGIX DCT DINKU M867 XERUM DCT BAVAX DCT RADIZ DCT GIMIX DCT SABAD DCT NERRA DCT RODON DCT LIMJA N732 PITAS
Aircraft B738/M-SDE3FGIJ1LRWY/SB1

Departure

Time N/A
Airport Dublin Airport (EIDW)

Arrival

Time 2026-05-04 15:15
Airport Corfu Ioannis Kapodistrias International Airport (LGKR)
Time Latitude Longitude Altitude Speed Heading
2026-05-04 14:06 45.74192 14.57162 37073 ft 450 kts 145°
2026-05-04 14:06 45.70013 14.61664 37081 ft 450 kts 145°
2026-05-04 14:07 45.65011 14.67044 37083 ft 450 kts 145°
2026-05-04 14:07 45.60001 14.72418 37064 ft 451 kts 145°
2026-05-04 14:08 45.54987 14.77782 37078 ft 451 kts 145°
2026-05-04 14:08 45.49963 14.83148 37083 ft 451 kts 145°
2026-05-04 14:09 45.42458 14.91236 37095 ft 452 kts 144°
2026-05-04 14:10 45.35012 14.99479 37083 ft 452 kts 144°
2026-05-04 14:10 45.30045 15.04950 37068 ft 451 kts 144°
2026-05-04 14:11 45.25079 15.10396 37076 ft 451 kts 144°
2026-05-04 14:11 45.17619 15.18547 37071 ft 452 kts 144°
2026-05-04 14:12 45.12637 15.23975 37055 ft 452 kts 144°
2026-05-04 14:13 45.05204 15.32052 37071 ft 451 kts 144°
2026-05-04 14:13 45.00222 15.37449 37088 ft 451 kts 144°
2026-05-04 14:14 44.95231 15.42845 37092 ft 452 kts 144°
2026-05-04 14:14 44.87725 15.50937 37067 ft 453 kts 144°
2026-05-04 14:15 44.77679 15.61724 37075 ft 455 kts 144°
2026-05-04 14:16 44.70114 15.69817 37081 ft 455 kts 144°
2026-05-04 14:17 44.62546 15.77888 37076 ft 456 kts 144°
2026-05-04 14:18 44.54952 15.85953 37095 ft 456 kts 144°
2026-05-04 14:19 44.44805 15.96692 37088 ft 457 kts 144°
2026-05-04 14:19 44.39721 16.02055 37097 ft 458 kts 144°
2026-05-04 14:20 44.34618 16.07424 37098 ft 459 kts 144°
2026-05-04 14:20 44.29512 16.12784 37108 ft 459 kts 144°
2026-05-04 14:21 44.21840 16.20819 37110 ft 460 kts 144°
2026-05-04 14:21 44.16711 16.26177 37102 ft 461 kts 144°
2026-05-04 14:22 44.11578 16.31528 37113 ft 462 kts 144°
2026-05-04 14:22 44.06429 16.36877 37108 ft 462 kts 144°
2026-05-04 14:23 43.98689 16.44899 37105 ft 463 kts 144°
2026-05-04 14:24 43.93554 16.50208 37102 ft 463 kts 144°
2026-05-04 14:24 43.88383 16.55542 37102 ft 463 kts 144°
2026-05-04 14:25 43.83207 16.60869 37105 ft 463 kts 144°
2026-05-04 14:25 43.75447 16.68834 37089 ft 463 kts 144°
2026-05-04 14:26 43.70275 16.74131 37102 ft 463 kts 144°
2026-05-04 14:26 43.65097 16.79420 37095 ft 463 kts 144°
2026-05-04 14:27 43.59911 16.84702 37096 ft 464 kts 144°
2026-05-04 14:27 43.54721 16.89980 37097 ft 464 kts 144°
2026-05-04 14:28 43.49522 16.95255 37098 ft 464 kts 144°
2026-05-04 14:28 43.44313 17.00529 37099 ft 465 kts 144°
2026-05-04 14:29 43.33886 17.11054 37103 ft 465 kts 143°
2026-05-04 14:30 43.28660 17.16310 37100 ft 466 kts 144°
2026-05-04 14:31 43.20813 17.24179 37107 ft 466 kts 144°
2026-05-04 14:32 43.10343 17.34643 37109 ft 466 kts 144°
2026-05-04 14:32 43.05103 17.39863 37125 ft 466 kts 144°
2026-05-04 14:33 42.99885 17.45050 37119 ft 467 kts 144°
2026-05-04 14:33 42.94622 17.50273 37122 ft 468 kts 144°
2026-05-04 14:34 42.89370 17.55516 37130 ft 468 kts 142°
2026-05-04 14:34 42.84278 17.61075 37118 ft 469 kts 140°
2026-05-04 14:35 42.79240 17.66735 37127 ft 470 kts 140°
2026-05-04 14:35 42.74182 17.72369 37127 ft 470 kts 140°
2026-05-04 14:36 42.69106 17.77968 37137 ft 470 kts 140°
2026-05-04 14:36 42.64016 17.83554 37130 ft 470 kts 141°
2026-05-04 14:37 42.58928 17.89124 37137 ft 470 kts 141°
2026-05-04 14:37 42.53837 17.94687 37136 ft 470 kts 141°
2026-05-04 14:38 42.48739 18.00246 37132 ft 470 kts 141°
2026-05-04 14:38 42.43643 18.05792 37133 ft 470 kts 141°
2026-05-04 14:39 42.38543 18.11332 37131 ft 470 kts 141°
2026-05-04 14:39 42.33441 18.16859 37130 ft 470 kts 141°
2026-05-04 14:40 42.25776 18.25144 37126 ft 470 kts 141°
2026-05-04 14:40 42.20667 18.30649 37125 ft 470 kts 141°
2026-05-04 14:41 42.15585 18.36115 37122 ft 470 kts 141°
2026-05-04 14:42 42.05337 18.47103 37115 ft 471 kts 141°
2026-05-04 14:42 42.00211 18.52581 37112 ft 472 kts 141°
2026-05-04 14:43 41.95067 18.58066 37109 ft 472 kts 141°
2026-05-04 14:43 41.89918 18.63546 37109 ft 472 kts 141°
2026-05-04 14:44 41.84766 18.69017 37110 ft 473 kts 141°
2026-05-04 14:44 41.79609 18.74483 37113 ft 473 kts 141°
2026-05-04 14:45 41.74436 18.79953 37121 ft 474 kts 141°
2026-05-04 14:45 41.69260 18.85415 37109 ft 474 kts 141°
2026-05-04 14:46 41.64072 18.90878 37096 ft 475 kts 141°
2026-05-04 14:46 41.58880 18.96335 37103 ft 475 kts 141°
2026-05-04 14:47 41.53681 19.01789 37106 ft 475 kts 141°
2026-05-04 14:47 41.48484 19.07228 37106 ft 475 kts 141°
2026-05-04 14:48 41.42805 19.11673 37098 ft 474 kts 160°
2026-05-04 14:48 41.36597 19.14649 37106 ft 474 kts 161°
2026-05-04 14:49 41.30373 19.17583 37111 ft 474 kts 161°
2026-05-04 14:49 41.24137 19.20582 36539 ft 480 kts 161°
2026-05-04 14:50 41.21011 19.22100 36046 ft 478 kts 161°
2026-05-04 14:50 41.17885 19.23621 35475 ft 478 kts 161°
2026-05-04 14:50 41.14759 19.25141 34907 ft 479 kts 161°
2026-05-04 14:50 41.11660 19.26646 34312 ft 482 kts 161°
2026-05-04 14:51 41.08458 19.28199 33616 ft 485 kts 161°
2026-05-04 14:51 41.05287 19.29734 32962 ft 486 kts 161°
2026-05-04 14:51 41.02154 19.31249 32316 ft 487 kts 161°
2026-05-04 14:51 40.98966 19.32789 31666 ft 488 kts 161°
2026-05-04 14:52 40.95776 19.34328 30990 ft 490 kts 161°
2026-05-04 14:52 40.92567 19.35875 30302 ft 492 kts 161°
2026-05-04 14:52 40.89341 19.37427 29464 ft 494 kts 161°
2026-05-04 14:52 40.86109 19.38982 28650 ft 494 kts 161°
2026-05-04 14:53 40.82878 19.40535 27905 ft 494 kts 160°
2026-05-04 14:53 40.79667 19.42076 27372 ft 488 kts 160°
2026-05-04 14:53 40.76495 19.43598 26792 ft 484 kts 160°
2026-05-04 14:53 40.73342 19.45109 26226 ft 480 kts 160°
2026-05-04 14:54 40.71268 19.46102 25876 ft 477 kts 160°
2026-05-04 14:54 40.68155 19.47591 25299 ft 475 kts 160°
2026-05-04 14:54 40.65063 19.49069 24736 ft 472 kts 160°
2026-05-04 14:54 40.61985 19.50538 24170 ft 469 kts 160°
2026-05-04 14:55 40.58922 19.51999 23600 ft 467 kts 159°
2026-05-04 14:55 40.55882 19.53447 22955 ft 464 kts 159°
2026-05-04 14:55 40.52863 19.54881 22373 ft 459 kts 159°
2026-05-04 14:55 40.49874 19.56298 21810 ft 455 kts 159°
2026-05-04 14:56 40.46908 19.57703 21255 ft 451 kts 159°
2026-05-04 14:56 40.43971 19.59094 20717 ft 447 kts 159°
2026-05-04 14:56 40.41064 19.60469 20181 ft 443 kts 159°
2026-05-04 14:56 40.38177 19.61831 19637 ft 439 kts 159°
2026-05-04 14:57 40.35315 19.63183 19107 ft 436 kts 159°
2026-05-04 14:57 40.32471 19.64527 18572 ft 433 kts 159°
2026-05-04 14:57 40.29642 19.65863 17975 ft 431 kts 159°
2026-05-04 14:57 40.26834 19.67188 17417 ft 427 kts 159°
2026-05-04 14:58 40.24046 19.68497 16878 ft 424 kts 160°
2026-05-04 14:58 40.21187 19.69368 16346 ft 420 kts 172°
2026-05-04 14:58 40.18303 19.69829 15879 ft 416 kts 174°
2026-05-04 14:58 40.15453 19.70200 15565 ft 407 kts 174°
2026-05-04 14:59 40.12650 19.70536 15190 ft 403 kts 175°
2026-05-04 14:59 40.09868 19.70867 14693 ft 401 kts 174°
2026-05-04 14:59 40.04405 19.71504 14189 ft 388 kts 175°
2026-05-04 15:00 40.01740 19.71813 13941 ft 381 kts 175°
2026-05-04 15:00 39.99130 19.72115 13717 ft 372 kts 175°
2026-05-04 15:00 39.96588 19.72358 13499 ft 362 kts 181°
2026-05-04 15:01 39.92168 19.70183 12857 ft 334 kts 227°
2026-05-04 15:01 39.90776 19.67869 12490 ft 319 kts 242°
2026-05-04 15:01 39.89645 19.65396 12123 ft 317 kts 244°
2026-05-04 15:01 39.88556 19.62899 11749 ft 317 kts 244°
2026-05-04 15:02 39.87480 19.60400 11382 ft 317 kts 244°
2026-05-04 15:02 39.86412 19.57900 11044 ft 311 kts 244°
2026-05-04 15:02 39.85389 19.55510 10918 ft 295 kts 245°
2026-05-04 15:02 39.84410 19.53233 10772 ft 281 kts 245°
2026-05-04 15:03 39.83474 19.51069 10629 ft 268 kts 245°
2026-05-04 15:03 39.82841 19.48870 10474 ft 254 kts 269°
2026-05-04 15:03 39.83088 19.46675 10372 ft 244 kts 299°
2026-05-04 15:03 39.84137 19.45006 10253 ft 239 kts 328°
2026-05-04 15:04 39.85695 19.44278 10025 ft 242 kts 356°
2026-05-04 15:04 39.87355 19.44408 9903 ft 238 kts 12°
2026-05-04 15:04 39.88823 19.45398 9599 ft 242 kts 40°
2026-05-04 15:04 39.89781 19.47194 9241 ft 245 kts 66°
2026-05-04 15:05 39.90074 19.49390 8800 ft 251 kts 90°
2026-05-04 15:05 39.89864 19.51655 8413 ft 252 kts 97°
2026-05-04 15:05 39.89551 19.53892 8037 ft 251 kts 98°
2026-05-04 15:05 39.89227 19.56112 7675 ft 249 kts 98°
2026-05-04 15:06 39.88912 19.58300 7315 ft 243 kts 98°
2026-05-04 15:06 39.88606 19.60467 6788 ft 244 kts 98°
2026-05-04 15:06 39.88305 19.62638 6300 ft 243 kts 98°
2026-05-04 15:07 39.87717 19.66922 5327 ft 238 kts 98°
2026-05-04 15:07 39.87431 19.69032 4921 ft 234 kts 99°
2026-05-04 15:07 39.87149 19.71106 4680 ft 233 kts 99°
2026-05-04 15:07 39.86868 19.73178 4548 ft 231 kts 99°
2026-05-04 15:08 39.86586 19.75246 4433 ft 233 kts 99°
2026-05-04 15:08 39.86300 19.77331 4334 ft 236 kts 100°
2026-05-04 15:08 39.85715 19.79333 4220 ft 238 kts 120°
2026-05-04 15:08 39.84866 19.81184 4120 ft 240 kts 119°
2026-05-04 15:09 39.84037 19.83070 4018 ft 240 kts 119°
2026-05-04 15:09 39.83218 19.84966 3915 ft 240 kts 118°
2026-05-04 15:09 39.82407 19.86858 3684 ft 236 kts 118°
2026-05-04 15:10 39.80749 19.90312 3221 ft 213 kts 141°
2026-05-04 15:10 39.79460 19.91078 3217 ft 204 kts 165°
2026-05-04 15:10 39.76654 19.91490 3181 ft 196 kts 175°
2026-05-04 15:11 39.75348 19.91645 3167 ft 182 kts 176°
2026-05-04 15:11 39.74089 19.91644 2978 ft 183 kts 185°
2026-05-04 15:11 39.72858 19.91530 2772 ft 172 kts 186°
2026-05-04 15:11 39.71686 19.91417 2415 ft 162 kts 187°
2026-05-04 15:12 39.70620 19.91316 2214 ft 150 kts 186°
2026-05-04 15:12 39.69596 19.91224 1975 ft 146 kts 186°
2026-05-04 15:12 39.68591 19.91136 1779 ft 143 kts 186°
2026-05-04 15:12 39.67606 19.91045 1560 ft 141 kts 186°
2026-05-04 15:13 39.66612 19.90957 1369 ft 145 kts 186°
2026-05-04 15:13 39.65614 19.90856 1181 ft 144 kts 186°
2026-05-04 15:13 39.64623 19.90713 957 ft 141 kts 193°
2026-05-04 15:13 39.63678 19.90448 698 ft 138 kts 185°
2026-05-04 15:14 39.62736 19.90555 408 ft 139 kts 171°
2026-05-04 15:14 39.61797 19.90810 243 ft 138 kts 171°
2026-05-04 15:14 39.60874 19.91041 48 ft 134 kts 171°
2026-05-04 15:14 39.60049 19.91252 20 ft 99 kts 168°
2026-05-04 15:15 39.59584 19.91371 17 ft 36 kts 168°
2026-05-04 15:15 39.59466 19.91395 17 ft 3 kts 94°
2026-05-04 15:15 39.59490 19.91395 19 ft 5 kts 348°
2026-05-04 15:16 39.59722 19.91335 19 ft 26 kts 349°
2026-05-04 15:16 39.59892 19.91291 21 ft 24 kts 349°
2026-05-04 15:16 39.60207 19.91211 22 ft 25 kts 348°
2026-05-04 15:17 39.60393 19.91162 21 ft 29 kts 348°
2026-05-04 15:17 39.60611 19.91229 20 ft 8 kts 18°
2026-05-04 15:17 39.60652 19.91250 17 ft 6 kts 52°
2026-05-04 15:18 39.60659 19.91301 17 ft 6 kts 80°
2026-05-04 15:18 39.60665 19.91339 17 ft 3 kts 79°
2026-05-04 15:18 39.60667 19.91353 17 ft 0 kts 79°